DW7889 Weather Reports


Display with metric or nautical units.
time (UTC)temp
F
wind
direction
speed
MPH
gust
MPH
rain 1hr
in
rain 24hr
in
rain mn
in
humidity
%
barometer
mb
20260901072034 57 193 5.0 7.0 0.00 0.91 0.00 97 1012.2
20260901071536 57 159 3.0 10.0 0.00 0.91 0.00 97 1012.1
20260901071058 58 191 4.0 13.0 0.00 0.91 0.00 97 1012.1
20260901070537 58 205 7.0 13.0 0.00 0.91 0.00 97 1012.1
20260901070040 58 176 7.0 12.0 0.00 0.91 0.00 97 1012.1
20260901065542 58 181 7.0 11.0 0.00 0.91 0.00 97 1012.1
20260901065044 58 171 7.0 12.0 0.00 0.91 0.00 97 1012.1
20260901064545 58 198 7.0 12.0 0.00 0.91 0.00 97 1012.1
20260901064108 58 172 6.0 15.0 0.00 0.91 0.00 97 1012.1
20260901063533 58 203 7.0 17.0 0.00 0.91 0.00 97 1012.0
20260901063034 58 198 7.0 12.0 0.00 0.91 0.00 97 1012.0
20260901062538 58 176 5.0 9.0 0.00 0.91 0.00 97 1012.1
20260901062041 58 212 7.0 10.0 0.00 0.91 0.00 97 1012.1
20260901061602 58 173 5.0 9.0 0.00 0.91 0.00 97 1012.1
20260901061027 58 195 5.0 8.0 0.00 0.91 0.00 97 1012.3
20260901060529 58 210 5.0 8.0 0.00 0.91 0.00 97 1012.2
20260901060031 58 209 5.0 8.0 0.00 0.91 0.00 97 1012.3
20260901055534 58 165 4.0 8.0 0.00 0.91 0.00 97 1012.3
20260901055034 58 160 5.0 9.0 0.00 0.91 0.00 97 1012.4
20260901054535 58 199 4.0 10.0 0.00 0.91 0.00 97 1012.5
20260901054035 59 174 5.0 8.0 0.00 0.91 0.00 97 1012.6
20260901053537 59 200 5.0 8.0 0.00 0.91 0.00 97 1012.7
20260901053041 59 217 4.0 15.0 0.00 0.91 0.00 97 1012.8
20260901052540 59 304 6.0 15.0 0.00 0.91 0.00 97 1012.8
20260901052042 59 203 8.0 14.0 0.00 0.91 0.00 97 1012.8
20260901051546 59 198 8.0 14.0 0.00 0.91 0.00 97 1012.9
20260901051028 59 257 6.0 10.0 0.00 0.91 0.00 97 1012.9
20260901050532 59 200 5.0 10.0 0.00 0.91 0.00 97 1012.9
20260901050038 59 264 6.0 11.0 0.00 0.91 0.00 97 1012.9
20260901045541 59 217 7.0 11.0 0.00 0.91 0.00 97 1013.0
20260901045041 59 249 6.0 10.0 0.00 0.91 0.00 97 1013.0
20260901044603 59 216 4.0 8.0 0.00 0.91 0.00 97 1013.0
20260901044044 59 218 4.0 8.0 0.00 0.91 0.00 97 1013.1
20260901043547 59 179 5.0 9.0 0.00 0.91 0.00 97 1013.2
20260901043029 59 206 3.0 9.0 0.00 0.91 0.00 97 1013.2
20260901042531 59 219 5.0 8.0 0.00 0.91 0.00 97 1013.3
20260901042034 59 275 4.0 7.0 0.00 0.91 0.00 97 1013.1
20260901041536 59 309 3.0 9.0 0.00 0.91 0.00 97 1013.2
20260901041035 59 257 3.0 9.0 0.00 0.91 0.00 97 1013.2
20260901040537 59 188 4.0 6.0 0.00 0.91 0.00 97 1013.1
20260901040041 59 226 3.0 9.0 0.00 0.91 0.00 97 1013.1
20260901035540 59 193 3.0 9.0 0.00 0.91 0.00 97 1013.1
20260901035103 59 212 5.0 8.0 0.00 0.91 0.00 97 1013.2
20260901034528 59 217 5.0 9.0 0.00 0.91 0.00 97 1013.2
20260901034030 59 180 5.0 9.0 0.00 0.91 0.00 97 1013.0
20260901033534 59 200 5.0 8.0 0.00 0.91 0.00 97 1013.2
20260901033036 59 204 3.0 8.0 0.00 0.91 0.00 97 1013.1
20260901032536 59 196 6.0 8.0 0.00 0.91 0.00 97 1013.0
20260901032039 59 208 5.0 8.0 0.00 0.91 0.00 97 1013.1
20260901031601 59 191 5.0 8.0 0.00 0.91 0.00 97 1013.2
20260901031042 59 193 3.0 11.0 0.00 0.91 0.00 97 1012.9
20260901030525 59 186 5.0 11.0 0.00 0.91 0.23 97 1012.6
20260901030047 59 173 3.0 6.0 0.00 0.91 0.23 97 1012.6
20260901025528 59 179 3.0 10.0 0.00 0.91 0.23 97 1012.5
20260901025030 59 191 5.0 10.0 0.00 0.91 0.23 97 1012.6
20260901024532 59 144 4.0 9.0 0.00 0.91 0.23 97 1012.5
20260901024038 59 126 5.0 9.0 0.00 0.91 0.23 97 1012.5
20260901023541 59 167 3.0 6.0 0.00 0.91 0.23 97 1012.9
20260901023044 59 175 2.0 6.0 0.00 0.91 0.23 97 1013.0
20260901022545 59 154 3.0 8.0 0.00 0.91 0.23 97 1012.9
20260901022105 59 139 5.0 8.0 0.00 0.91 0.23 97 1012.6
20260901021545 59 124 4.0 8.0 0.00 0.91 0.23 97 1012.9
20260901021044 59 161 3.0 8.0 0.00 0.91 0.23 97 1012.9
20260901020527 59 193 4.0 9.0 0.00 0.91 0.23 97 1012.8
20260901020029 59 192 5.0 9.0 0.00 0.91 0.23 97 1012.8
20260901015532 59 214 4.0 7.0 0.00 0.91 0.23 97 1013.6
20260901015054 59 172 5.0 9.0 0.00 0.91 0.23 97 1013.2
20260901014535 59 223 5.0 9.0 0.00 0.91 0.23 97 1014.0
20260901014038 59 216 6.0 9.0 0.00 0.91 0.23 97 1013.6
20260901013536 59 218 4.0 8.0 0.00 0.91 0.23 97 1013.8
20260901013037 59 185 4.0 8.0 0.00 0.91 0.23 97 1013.5
20260901012542 59 250 3.0 5.0 0.00 0.91 0.23 97 1014.2
20260901012044 59 169 3.0 5.0 0.00 0.91 0.23 97 1014.0
20260901011548 58 230 2.0 9.0 0.00 0.91 0.23 97 1014.3
20260901011026 58 174 3.0 9.0 0.00 0.91 0.23 97 1013.9
20260901010528 58 236 3.0 9.0 0.00 1.26 0.23 97 1013.9
20260901010031 58 184 5.0 9.0 0.00 1.26 0.23 97 1013.4
20260901005553 59 200 3.0 6.0 0.00 1.26 0.23 97 1013.8
20260901005052 58 302 2.0 5.0 0.00 1.26 0.23 97 1013.9
20260901004551 59 210 3.0 5.0 0.00 1.26 0.23 97 1013.6
20260901004033 59 264 2.0 5.0 0.00 1.26 0.23 97 1013.8
20260901003052 59 247 2.0 4.0 0.00 1.26 0.23 97 1013.9
20260901002537 59 236 2.0 5.0 0.00 1.26 0.23 97 1013.8
20260901002057 59 229 4.0 8.0 0.00 1.26 0.23 97 1013.7
20260901001538 59 277 4.0 8.0 0.00 1.26 0.23 97 1013.9
20260901001039 59 266 4.0 7.0 0.00 1.26 0.23 97 1013.9
20260901000600 59 218 5.0 10.0 0.00 1.30 0.23 97 1013.1
20260901000044 59 171 6.0 12.0 0.00 1.30 0.23 97 1013.1
20260831235544 59 185 6.0 12.0 0.00 1.30 0.23 97 1013.1
20260831235107 59 190 4.0 9.0 0.00 1.30 0.23 97 1013.4
20260831234609 59 217 5.0 8.0 0.00 1.30 0.23 97 1013.5
20260831234032 59 224 4.0 7.0 0.00 1.30 0.23 97 1013.5
20260831233534 59 206 4.0 7.0 0.00 1.30 0.23 97 1013.3
20260831233037 59 221 3.0 7.0 0.00 1.30 0.23 97 1013.2
20260831232601 59 162 1.0 7.0 0.00 1.30 0.23 96 1013.3
20260831232043 59 285 3.0 7.0 0.00 1.30 0.23 96 1013.4
20260831231545 59 177 4.0 7.0 0.00 1.30 0.23 96 1013.0
20260831231027 59 229 4.0 7.0 0.00 1.30 0.23 96 1013.0
20260831230530 59 182 4.0 9.0 0.00 1.46 0.23 96 1013.2
20260831230033 59 255 6.0 9.0 0.00 1.46 0.23 96 1013.3
20260831225557 59 199 5.0 9.0 0.00 1.46 0.23 96 1013.0
20260831225038 59 212 4.0 9.0 0.00 1.46 0.23 96 1013.1
20260831224543 59 203 5.0 11.0 0.00 1.46 0.23 96 1012.4
20260831224103 59 203 4.0 11.0 0.00 1.46 0.23 96 1012.5
20260831223541 59 251 5.0 11.0 0.00 1.46 0.23 95 1012.3
20260831223027 59 197 5.0 10.0 0.00 1.46 0.23 95 1012.1
20260831222534 59 200 6.0 9.0 0.00 1.46 0.23 94 1012.3
20260831222039 60 175 3.0 8.0 0.00 1.46 0.23 94 1012.4
20260831221540 60 252 4.0 11.0 0.00 1.46 0.23 94 1012.2
20260831221044 60 223 8.0 11.0 0.00 1.46 0.23 94 1011.8
20260831220544 60 295 1.0 5.0 0.00 1.65 0.23 94 1011.9
20260831220046 60 264 4.0 5.0 0.00 1.65 0.23 94 1012.0
20260831215546 60 258 3.0 5.0 0.00 1.65 0.23 94 1011.8
20260831215028 60 304 3.0 6.0 0.00 1.65 0.23 94 1011.9
20260831214530 60 288 5.0 6.0 0.00 1.65 0.23 94 1012.4
20260831214033 60 276 2.0 5.0 0.00 1.65 0.23 94 1012.1
20260831213536 60 255 3.0 7.0 0.00 1.65 0.23 94 1012.0
20260831213039 60 279 4.0 8.0 0.00 1.65 0.23 94 1011.8
20260831212601 60 274 5.0 8.0 0.04 1.65 0.23 93 1011.6
20260831212042 61 260 5.0 8.0 0.04 1.65 0.23 94 1011.2
20260831211528 60 265 3.0 12.0 0.08 1.65 0.23 94 1011.0
20260831211053 60 43 7.0 15.0 0.12 1.65 0.23 94 1009.4
20260831210554 60 14 8.0 18.0 0.12 1.69 0.23 95 1009.1
20260831210035 60 71 10.0 19.0 0.16 1.69 0.23 96 1008.7
20260831205537 60 79 8.0 22.0 0.20 1.69 0.23 96 1008.3
20260831205059 60 91 12.0 28.0 0.24 1.69 0.23 96 1007.8
20260831204541 60 69 19.0 32.0 0.28 1.69 0.23 96 1007.8
20260831204045 59 86 23.0 32.0 0.31 1.69 0.23 96 1008.0
20260831203607 59 96 15.0 21.0 0.35 1.69 0.23 96 1009.9
20260831203029 60 80 10.0 13.0 0.35 1.69 0.23 96 1011.0
20260831202531 59 96 9.0 11.0 0.31 1.65 0.22 96 1011.7
20260831202033 59 101 6.0 8.0 0.35 1.65 0.22 96 1012.1
20260831201532 59 86 4.0 6.0 0.31 1.61 0.21 96 1012.4
20260831201035 59 105 4.0 5.0 0.31 1.57 0.20 96 1012.4
20260831200537 60 146 3.0 5.0 0.35 1.69 0.20 96 1012.5
20260831200037 60 179 2.0 5.0 0.31 1.65 0.19 96 1012.7
20260831195540 60 185 3.0 5.0 0.28 1.61 0.18 96 1012.7
20260831195044 60 181 4.0 7.0 0.28 1.57 0.17 96 1012.9
20260831194545 60 191 3.0 7.0 0.28 1.54 0.16 96 1013.0
20260831194028 60 200 4.0 5.0 0.24 1.50 0.15 96 1013.0
20260831193552 60 274 3.0 8.0 0.24 1.46 0.14 96 1013.1
20260831193034 60 256 3.0 8.0 0.24 1.46 0.14 96 1013.0
20260831192536 60 250 3.0 6.0 0.28 1.46 0.14 96 1013.1
20260831192037 60 212 3.0 6.0 0.28 1.42 0.13 95 1013.1
20260831191539 61 207 4.0 6.0 0.31 1.42 0.13 96 1013.2
20260831191043 61 288 4.0 6.0 0.31 1.38 0.12 96 1013.2
20260831190544 61 292 3.0 6.0 0.28 1.38 0.11 95 1013.1
20260831190028 61 253 4.0 6.0 0.31 1.38 0.11 95 1013.0
20260831185529 61 259 4.0 6.0 0.35 1.38 0.11 95 1013.0
20260831185031 61 256 3.0 5.0 0.35 1.34 0.10 95 1013.0
20260831184537 61 234 3.0 5.0 0.31 1.30 0.09 95 1012.9
20260831184038 61 188 2.0 4.0 0.31 1.30 0.09 95 1013.0
20260831183539 61 204 2.0 3.0 0.31 1.26 0.08 95 1012.8
20260831183040 61 217 2.0 4.0 0.31 1.26 0.08 95 1012.7
20260831182543 62 299 1.0 6.0 0.28 1.22 0.07 95 1012.6
20260831182106 62 285 4.0 8.0 0.24 1.18 0.06 95 1012.4
20260831181544 62 313 5.0 8.0 0.20 1.14 0.05 95 1012.4
20260831181026 62 287 6.0 8.0 0.16 1.10 0.04 95 1012.4
20260831180529 62 311 4.0 6.0 0.12 1.06 0.03 95 1012.4
20260831180034 63 286 3.0 4.0 0.12 1.06 0.03 95 1012.4
20260831175533 62 319 1.0 2.0 0.08 1.02 0.02 95 1012.4
20260831175037 62 101 0.0 1.0 0.04 0.98 0.01 95 1012.3
20260831174601 62 95 0.0 2.0 0.04 0.98 0.01 95 1012.1
20260831174041 62 99 1.0 2.0 0.04 0.98 0.01 95 1011.8
20260831173544 62 197 0.0 2.0 0.00 0.94 0.00 95 1011.7
20260831173048 62 196 0.0 3.0 0.00 0.94 0.00 95 1011.6
20260831172529 62 196 2.0 3.0 0.00 0.94 0.00 95 1011.6
20260831172031 62 141 0.0 4.0 0.00 0.94 0.00 95 1011.5
20260831171552 62 48 2.0 6.0 0.00 0.94 0.00 95 1011.6
20260831165108 61 285 0.0 2.0 0.00 0.94 0.00 94 1012.3
20260831164029 61 25 2.0 3.0 0.00 0.94 0.00 94 1012.3
20260831163530 61 101 1.0 5.0 0.00 0.94 0.00 94 1012.5
20260831163049 61 198 2.0 7.0 0.00 0.94 0.00 93 1012.4
20260831162547 62 179 4.0 7.0 0.00 0.94 0.00 91 1012.6
20260831162028 62 37 2.0 8.0 0.00 0.94 0.00 93 1012.5
20260831161549 61 16 4.0 8.0 0.00 0.94 0.00 94 1012.4
20260831161032 61 184 1.0 9.0 0.00 0.94 0.00 93 1012.6
20260831160553 61 183 5.0 9.0 0.00 0.94 0.00 93 1012.7
20260831160036 61 160 3.0 4.0 0.00 0.94 0.00 92 1012.6
20260831155538 61 66 0.0 3.0 0.00 0.94 0.00 93 1012.5
20260831155044 61 56 1.0 3.0 0.00 0.94 0.00 93 1012.7
20260831154531 60 221 1.0 5.0 0.00 0.94 0.00 93 1012.6
20260831154036 61 232 2.0 5.0 0.00 0.94 0.00 93 1012.7
20260831153601 61 214 1.0 3.0 0.00 0.94 0.00 93 1012.6
20260831153042 60 129 2.0 3.0 0.00 0.94 0.00 92 1012.3
20260831152544 60 233 0.0 7.0 0.00 0.94 0.00 92 1012.1
20260831152109 61 233 2.0 11.0 0.00 0.94 0.00 91 1012.3
20260831151531 62 190 7.0 11.0 0.00 0.94 0.00 90 1012.1
20260831151033 62 15 1.0 3.0 0.00 0.94 0.00 91 1012.3
20260831150536 62 325 1.0 4.0 0.00 0.94 0.00 92 1012.4
20260831150040 61 46 2.0 5.0 0.00 0.94 0.00 92 1012.4
20260831145545 61 50 4.0 7.0 0.00 0.94 0.00 93 1012.6
20260831145027 60 63 2.0 7.0 0.00 0.94 0.00 94 1012.9
20260831144530 60 139 1.0 5.0 0.00 0.94 0.00 94 1013.0
20260831144030 60 191 2.0 5.0 0.00 0.94 0.00 94 1013.2
20260831143610 60 160 3.0 6.0 0.00 0.94 0.00 94 1013.2
20260831143048 60 181 3.0 7.0 0.00 0.94 0.00 94 1013.0
20260831142549 60 153 3.0 6.0 0.00 0.94 0.00 93 1013.0
20260831142050 60 185 2.0 5.0 0.00 0.94 0.00 93 1013.2
20260831141533 60 134 3.0 5.0 0.00 0.94 0.00 94 1013.3
20260831141035 60 145 2.0 4.0 0.00 0.94 0.00 94 1013.5
20260831140534 60 120 2.0 4.0 0.00 0.94 0.00 94 1013.4
20260831140040 60 176 2.0 4.0 0.00 0.94 0.00 94 1013.5
20260831135543 59 166 2.0 5.0 0.00 0.94 0.00 94 1013.9
20260831135044 59 208 3.0 6.0 0.00 0.94 0.00 94 1014.0
20260831134546 59 191 4.0 6.0 0.00 0.94 0.00 94 1013.8
20260831134028 59 161 2.0 5.0 0.00 0.94 0.00 93 1013.8
20260831133531 59 160 3.0 6.0 0.00 0.94 0.00 93 1013.8
20260831133053 60 186 3.0 7.0 0.00 0.94 0.00 92 1013.6
20260831132534 60 127 5.0 7.0 0.00 0.94 0.00 92 1013.6
20260831132037 60 146 5.0 7.0 0.00 0.94 0.00 92 1013.8
20260831131539 60 101 4.0 7.0 0.00 0.94 0.00 92 1013.8
20260831131101 60 103 6.0 7.0 0.00 0.94 0.00 93 1014.0
20260831130543 60 109 3.0 5.0 0.00 0.94 0.00 93 1014.3
20260831130044 59 119 3.0 5.0 0.00 0.94 0.00 93 1014.3
20260831125544 59 171 1.0 4.0 0.00 0.94 0.00 93 1014.3
20260831125025 59 193 2.0 6.0 0.00 0.94 0.00 93 1014.1
20260831124531 59 143 4.0 8.0 0.00 0.94 0.00 94 1013.9
20260831124033 59 131 5.0 8.0 0.00 0.94 0.00 94 1013.8
20260831123536 58 142 4.0 6.0 0.00 0.94 0.00 94 1013.8
20260831123036 58 147 5.0 6.0 0.00 0.94 0.00 94 1013.4
20260831122537 58 175 2.0 6.0 0.00 0.94 0.00 94 1013.8
20260831122037 59 180 3.0 8.0 0.00 0.94 0.00 94 1013.9
20260831121540 59 129 5.0 8.0 0.00 0.94 0.00 94 1014.0
20260831121040 58 115 5.0 7.0 0.00 0.94 0.00 95 1013.9
20260831120526 58 99 4.0 6.0 0.00 0.94 0.00 95 1013.9
20260831120106 58 146 4.0 6.0 0.00 0.94 0.00 95 1014.0
20260831115531 58 117 2.0 5.0 0.00 0.94 0.00 95 1014.1
20260831115032 58 164 2.0 5.0 0.00 0.94 0.00 96 1014.1
20260831114532 57 112 3.0 5.0 0.00 0.94 0.00 96 1014.0
20260831114053 57 144 2.0 3.0 0.00 0.94 0.00 96 1013.9
20260831113557 57 176 2.0 5.0 0.00 0.94 0.00 96 1014.0
20260831113057 57 129 4.0 6.0 0.00 0.94 0.00 96 1013.8
20260831112538 57 105 3.0 7.0 0.00 0.94 0.00 96 1014.1
20260831112038 57 136 5.0 7.0 0.00 0.94 0.00 96 1013.8
20260831111542 57 115 4.0 6.0 0.00 0.94 0.00 96 1013.8
20260831111105 56 130 3.0 5.0 0.00 0.94 0.00 96 1014.0
20260831110604 56 117 3.0 6.0 0.00 0.94 0.00 96 1014.1
20260831110032 56 110 4.0 8.0 0.00 0.94 0.00 97 1014.0
20260831105535 56 120 5.0 8.0 0.00 0.94 0.00 97 1014.0
20260831105039 55 122 4.0 5.0 0.00 0.94 0.00 96 1014.1
20260831104538 55 103 1.0 4.0 0.00 0.94 0.00 96 1014.0
20260831104041 55 124 0.0 0.0 0.00 0.94 0.00 96 1014.1
20260831103541 55 131 0.0 0.0 0.00 0.94 0.00 97 1014.0
20260831103042 55 139 0.0 0.0 0.00 0.94 0.00 97 1013.9
20260831102527 55 147 0.0 0.0 0.00 0.94 0.00 96 1013.7
20260831102032 55 116 0.0 0.0 0.00 0.94 0.00 96 1013.8
20260831101536 55 116 0.0 0.0 0.00 0.94 0.00 96 1013.9
20260831101038 55 105 0.0 0.0 0.00 0.94 0.00 96 1013.9
20260831100539 55 107 0.0 0.0 0.00 0.94 0.00 96 1013.9
20260831100040 55 105 0.0 1.0 0.00 0.94 0.00 96 1013.8
20260831095542 55 108 0.0 1.0 0.00 0.94 0.00 96 1013.8
20260831095045 55 105 0.0 0.0 0.00 0.94 0.00 96 1013.7
20260831094527 55 120 0.0 0.0 0.00 0.94 0.00 96 1013.7
20260831094029 55 134 0.0 0.0 0.00 0.94 0.00 96 1013.6
20260831093533 55 143 0.0 2.0 0.00 0.94 0.00 96 1013.6
20260831093030 55 153 1.0 4.0 0.00 0.94 0.00 96 1013.5
20260831092555 55 131 2.0 4.0 0.00 0.94 0.00 96 1013.4
20260831092057 55 148 1.0 6.0 0.00 0.94 0.00 96 1013.4
20260831091554 55 155 3.0 6.0 0.00 0.94 0.00 96 1013.0
20260831091039 55 173 3.0 7.0 0.00 0.94 0.00 96 1012.9
20260831090600 55 188 4.0 8.0 0.00 0.94 0.00 96 1012.8
20260831090042 55 193 4.0 8.0 0.00 0.94 0.00 96 1012.5
20260831085545 55 160 3.0 7.0 0.00 0.94 0.00 96 1012.2
20260831085028 55 192 4.0 6.0 0.00 0.94 0.00 96 1012.3
20260831084550 55 215 3.0 8.0 0.00 0.94 0.00 96 1012.4
20260831084032 55 117 4.0 8.0 0.00 0.94 0.00 95 1012.5
20260831083552 55 179 3.0 5.0 0.00 0.94 0.00 95 1012.4
20260831083110 55 193 1.0 5.0 0.00 0.94 0.00 95 1012.6
20260831082529 55 130 3.0 5.0 0.00 0.94 0.00 94 1012.6
20260831082032 55 139 3.0 4.0 0.00 0.94 0.00 94 1012.8
20260831081533 56 158 0.0 3.0 0.00 0.94 0.00 94 1013.0
20260831081035 56 158 1.0 5.0 0.00 0.94 0.00 93 1012.9
20260831080540 56 151 3.0 4.0 0.00 0.94 0.00 93 1012.8
20260831075544 57 124 2.0 4.0 0.00 0.94 0.00 92 1013.1
20260831075044 57 79 1.0 3.0 0.00 0.94 0.00 91 1013.2
20260831074602 57 120 2.0 3.0 0.00 0.94 0.00 91 1013.2
20260831074026 58 166 1.0 5.0 0.00 0.94 0.00 90 1013.4
20260831073536 58 130 1.0 3.0 0.00 0.94 0.00 89 1013.4
20260831073058 59 70 2.0 5.0 0.00 0.94 0.00 89 1013.6
20260831072540 59 94 1.0 6.0 0.00 0.94 0.00 88 1013.8